DECAYED

STARLINK-3886, 52582 (Decayed)

Orbit data source: Space-Track

STARLINK-3886, 52582 was a payload satellite owned by SpaceX/Seattle (US) in LEO that was launched on Fri, 13 May 2022 UTC via an FALCON 9 launch vehicle from the Air Force Western Test Range (AFWTR). Payload-class satellites include a variety of spacecraft equipped with specific instruments for various scientific and technological missions. These include communications satellites like Starlink; space stations such as the ISS; scientific satellites like the Hubble; Earth observation satellites from companies like Planet Labs, Umbra, and HawkEye 360; GPS; miniature CubeSats for education and research; and military/defense satellites.

Not visible in the next 10 days
Identifier
52582, 2022-051AY
Orbit
Decayed
Country
Flag of USUS
Related business
Manufacturer
SpaceX/Seattle
Mission
Decayed Commercial Communications
Bus & Motor
STARLINK, Unknown motor
Mass
297 kg wet, ~275 kg dry
Launch date (UTC)
2022-05-13 (4 years ago)
Launch vehicle
FALCON 9
Launch site
Air Force Western Test Range (AFWTR)
Object type
Payload
Rocket body
Debris
Shape & HBR
Box + 1 Pan, 10.1 m
Radar Cross Section
13.562 m², Large (>1 m²)

Expand to show TLE details & history
Last TLE update: 1 year ago

TLE from 1 year ago
0 STARLINK-3886
1 52582U 22051AY  25007.94638281  .63605744  12882-4  19798-3 0  9994
2 52582  53.1943 201.9219 0002292 279.5829 246.8267 16.58849514147772
Epoch: 2025-01-07T22:42Z
TLE epoch observation values (Epoch: 2025-01-07T22:42:47.474Z)
Latitude
10.85042°
Longitude
-74.71978°
Altitude
116.909 km
Speed
7.838 km/s
True Right ascension
00h 54m 53s
True Declination
10° 46' 51"
Sunlit
Object was in daylight at epoch
Visualization orbit readout
Latitude
Unknown
Longitude
Unknown
Altitude
Unknown
Speed
Unknown
Apparent Right ascension
Unknown
Apparent Declination
Unknown
Sunlit
N/A
Visualization observer readout
Local Sidereal Time
21:31:58
Azimuth
Unknown
Elevation
Unknown
Doppler factor
Unknown
Orbital elements
Apogee altitude
117.888 km
Perigee altitude
114.911 km
Semi-major axis
6,494.537 km
Eccentricity
0.00023
Inclination
53.1943°
RAAN
201.9219°
Arg. of periapsis
279.5829°
True anomaly
246.80256°
Mean anomaly
246.8267°
Eccentric anomaly
246.81463°
Mean motion
4.14687 °/min
Orbital period
86.81 mins
BSTAR
0.00019798
Loading maneuver chart data...
Computing Atmospheric mass density...
Loading historical data...
Loading historical data...
Loading historical data...
Loading historical data...
Loading historical data...
Loading historical data...
Loading historical data...

Documentation

Showing up to 5 results
|